Regional Weather Roundup
Issued by NWS

Home | Current Version | Previous Version | Text Only | Print | Product List | Glossary Off
Versions: 1 2 3 4 5 6 7 8 9 10 11 12 13 14 15 16 17 18 19 20 21 22 23 24 25 26 27 28 29 30 31 32 33 34 35 36 37 38 39 40 41 42 43 44 45 46 47 48 49 50

000
ASUS43 KLMK 310402
RWRKY
KENTUCKY REGIONAL WEATHER ROUNDUP
NATIONAL WEATHER SERVICE LOUISVILLE KY
1200 AM EDT TUE MAY 31 2016

NOTE "FAIR" INDICATES FEW OR NO CLOUDS BELOW 12,000 FEET
WITH NO SIGNIFICANT WEATHER AND/OR OBSTRUCTIONS TO VISIBILITY.

KYZ001>023-026-027-061>063-070>075-310500-
WESTERN AND SOUTH CENTRAL KENTUCKY

CITY           SKY/WX    TMP DP  RH WIND       PRES   REMARKS
PADUCAH        CLOUDY    67  63  87 CALM      29.97S
HENDERSON      PTCLDY    70  63  78 CALM      29.97S
OWENSBORO      CLEAR     73  65  76 CALM      29.98F
HOPKINSVILLE   NOT AVBL
BOWLING GREEN  CLOUDY    70  61  73 CALM      29.99S
GLASGOW        NOT AVBL
$$

KYZ024-025-028>034-038-045-046-053-310500-
NORTH CENTRAL KENTUCKY

CITY           SKY/WX    TMP DP  RH WIND       PRES   REMARKS
LOUISVILLE/SDF PTCLDY    76  58  53 CALM      29.98S
LOUISVILLE/LOU CLOUDY    74  59  59 CALM      29.99S
FORT KNOX      NOT AVBL
$$

KYZ035>037-039>044-047>052-055>060-089>105-310500-
NORTHEAST KENTUCKY

CITY           SKY/WX    TMP DP  RH WIND       PRES   REMARKS
LEXINGTON      CLEAR     68  60  75 CALM      30.01F
COVINGTON      PTCLDY    66  58  75 SE3       29.99F
FRANKFORT      CLEAR     66  58  75 CALM      29.99S
$$

KYZ054-064>069-076>088-106>120-310500-
SOUTHEAST KENTUCKY

CITY           SKY/WX    TMP DP  RH WIND       PRES   REMARKS
JACKSON        CLEAR     71  59  65 CALM      30.03S
LONDON         CLEAR     67  62  84 CALM      30.02S
SOMERSET       NOT AVBL
MIDDLESBORO    CLEAR     65  63  93 CALM      30.02F
MONTICELLO     CLEAR     63  61  93 NW9       30.03R
$$




USA.gov is the U.S. government's official web portal to all federal, state and local government web resources and services.